Wetbulb
62.20 57.31 52.76 51.43 45.39 42.37 39.25 44.74 48.97 50.77 53.44 56.32 60.17 59.33 58.17 60.77 59.35 53.89 68.29 72.22 73.89 74.00 75.32 75.57 76.68 76.57 76.87 76.79 76.56 76.33 76.17 76.15 76.25 76.51 76.43 76.41 76.46 76.39 76.34 76.26 75.99 75.21 74.88 73.93 73.05 73.04 73.42 73.51 73.65
57.85 54.78 51.18 46.62 41.55 37.74 40.69 46.33 48.49 49.91 53.77 56.27 58.35 62.28 61.22 60.60 67.20 67.59 68.78 73.62 73.82 74.29 75.01 75.05 76.75 76.49 76.56 76.43 76.18 76.02 76.25 75.90 75.90 76.03 76.10 76.17 76.28 76.01 75.76 75.86 75.72 75.23 74.43 73.47 72.97 73.36 73.52 73.76 73.76
52.54 52.90 46.46 42.52 38.08 38.66 41.40 46.52 48.17 50.75 51.78 51.70 56.92 62.22 62.68 62.71 68.62 68.24 71.19 73.67 73.99 73.95 74.69 75.16 76.52 76.48 76.51 76.01 76.03 75.85 76.02 75.97 75.95 76.03 75.93 75.98 75.93 75.68 75.65 75.71 75.59 74.67 73.76 72.97 72.89 73.32 73.65 73.68 73.65
49.66 48.05 45.13 40.16 37.46 42.27 44.86 46.18 47.36 48.52 50.95 55.63 59.44 60.15 64.31 68.68 68.93 70.37 73.89 74.22 73.26 73.37 74.36 75.98 76.42 76.25 76.36 76.06 75.95 75.60 75.70 75.85 75.96 76.04 75.93 75.93 75.83 75.54 75.27 75.23 74.86 74.35 73.20 72.79 72.73 73.04 73.27 73.65 73.86
46.57 43.75 38.73 36.06 38.55 42.76 47.13 47.68 47.31 47.22 48.41 54.92 59.21 59.65 61.25 69.01 72.03 73.30 73.71 73.74 72.77 72.95 73.73 75.50 76.29 76.22 76.36 76.09 75.86 75.65 75.53 75.50 75.70 75.98 75.86 75.78 75.79 75.44 75.14 75.01 74.39 73.65 73.83 73.43 72.90 73.22 73.59 73.84 73.69
43.14 42.25 36.82 36.04 38.68 45.67 46.78 47.33 47.01 45.59 48.00 50.22 59.62 60.11 60.89 70.21 71.01 72.31 73.55 72.68 73.41 72.96 73.98 74.80 75.99 76.17 75.92 75.90 75.75 75.30 75.07 75.14 75.44 75.49 75.65 75.67 75.63 75.24 75.02 74.51 74.29 73.87 73.73 73.48 72.94 72.94 72.87 72.48 71.93
41.52 39.36 36.63 37.27 39.26 42.21 46.58 47.04 44.24 44.91 44.96 48.22 60.68 58.47 60.82 67.55 70.18 72.03 71.98 72.66 73.28 73.71 73.85 74.00 74.71 75.60 75.98 75.67 75.61 75.29 75.06 75.00 75.03 75.12 75.15 75.35 75.25 75.16 74.84 74.37 74.21 73.99 73.72 73.27 72.80 72.45 71.76 70.99 70.34
42.96 40.40 35.95 37.59 39.94 40.24 46.46 45.41 44.29 44.21 47.05 53.41 60.93 57.50 58.37 65.26 70.29 69.83 70.87 71.34 71.99 72.95 73.10 72.99 73.62 74.42 74.49 74.60 75.74 75.55 75.25 75.00 74.95 75.12 75.17 75.07 75.00 74.91 74.89 73.88 73.80 73.89 73.59 73.10 72.68 72.40 71.79 70.97 70.48
46.45 37.86 35.28 37.71 40.54 41.65 44.65 43.95 46.79 48.27 49.03 51.09 53.11 57.12 61.07 69.00 68.75 68.00 69.21 69.86 70.48 71.95 71.66 72.45 72.68 73.02 73.17 73.39 74.71 75.51 75.55 75.39 75.21 74.93 75.05 74.14 72.97 73.27 73.46 73.52 72.83 73.62 73.59 73.29 72.97 72.48 71.81 71.32 71.00
43.44 36.54 39.77 43.73 43.49 41.69 45.48 45.14 45.31 46.55 46.84 49.62 51.87 56.38 67.43 68.59 67.35 66.54 67.30 67.61 68.77 70.13 70.94 72.21 72.34 73.04 72.79 73.87 73.28 73.46 73.67 73.98 73.99 73.82 73.34 72.69 71.90 71.60 72.43 72.82 73.66 73.39 74.01 73.61 73.29 72.82 72.30 72.01 69.01
40.82 39.12 43.89 45.49 46.82 44.49 43.83 45.36 46.41 44.99 44.31 47.83 48.96 51.58 60.12 64.90 66.37 66.53 66.90 67.35 68.23 69.35 70.70 72.08 72.77 72.74 72.77 72.70 73.39 73.67 73.60 73.65 73.31 72.94 72.60 72.07 71.59 71.39 72.19 70.90 71.24 71.67 71.98 71.36 71.10 71.10 70.42 69.50 67.97
39.94 43.42 44.91 45.91 46.99 46.00 44.57 45.40 45.09 45.10 46.42 48.69 49.38 50.56 52.04 62.06 64.38 66.33 66.80 67.46 68.22 68.74 69.40 71.20 72.08 72.50 72.68 72.45 73.33 72.79 72.57 72.73 72.52 73.27 72.49 71.71 70.82 69.85 70.12 70.18 69.84 69.39 69.61 69.40 69.27 68.41 68.35 67.41 67.77
40.27 43.14 44.71 45.89 45.39 44.76 45.40 43.86 44.32 44.65 48.14 49.15 48.87 49.48 49.34 51.95 56.76 60.82 66.41 67.46 68.12 68.39 68.83 69.73 71.29 71.55 71.99 71.41 72.74 71.59 71.81 72.20 72.37 72.57 72.80 72.05 70.35 69.29 69.51 69.55 69.07 68.59 68.66 68.26 67.96 67.64 67.14 66.60 66.02
42.34 42.97 43.94 43.73 43.66 43.54 42.97 44.05 44.58 46.17 48.62 48.63 48.50 48.05 47.94 47.94 49.66 52.07 54.81 58.89 62.24 68.65 68.99 69.37 70.60 71.22 71.31 70.86 71.37 71.65 71.71 72.19 71.69 72.15 71.90 71.93 70.61 69.62 69.01 69.10 68.89 68.53 68.46 68.38 67.95 67.08 66.02 65.29 64.98
42.66 40.37 42.13 42.41 43.55 43.47 44.36 42.78 42.14 47.69 48.56 47.50 47.10 47.33 47.49 47.87 47.90 49.74 51.74 55.72 60.82 64.71 69.04 68.88 69.80 70.51 70.11 70.30 70.56 70.73 71.65 71.95 72.05 71.77 71.96 72.21 71.53 70.14 69.83 68.86 68.38 68.74 68.12 67.89 67.40 66.69 65.94 64.77 64.45
39.72 39.12 35.87 41.94 43.83 44.73 44.77 39.00 45.41 47.45 47.02 45.81 46.47 46.50 47.09 47.27 48.24 48.45 49.02 51.70 57.55 64.10 67.23 68.18 70.21 69.08 69.08 69.11 70.01 70.35 70.33 70.73 71.38 71.65 71.64 72.23 72.14 71.28 69.82 69.01 68.59 68.34 67.56 67.05 66.39 66.01 65.52 64.72 64.77
36.90 32.97 35.25 40.00 43.41 42.88 40.92 37.10 43.84 45.26 44.76 44.39 44.79 45.66 46.49 46.68 47.60 48.82 49.82 49.66 51.40 63.26 66.01 66.39 68.53 68.25 68.16 67.50 68.51 69.07 69.01 68.99 69.38 69.36 69.36 70.63 71.42 71.70 70.47 69.76 69.63 68.11 67.19 66.70 66.58 65.61 65.65 65.42 65.47
33.83 33.66 36.29 37.48 40.92 40.22 37.13 38.70 42.62 43.85 43.87 44.08 44.33 44.65 45.30 46.46 47.80 49.55 49.91 49.98 49.99 57.39 64.88 66.26 66.96 67.17 67.74 68.07 68.82 69.51 69.29 68.39 68.01 67.71 67.87 68.31 69.05 70.41 70.78 70.60 69.13 68.01 67.17 66.86 66.86 66.41 65.98 65.72 66.27
38.82 36.94 36.57 39.18 41.72 39.05 38.16 38.12 41.44 43.25 42.56 43.20 44.36 43.25 44.15 45.74 48.41 48.77 49.88 50.50 51.12 54.22 64.08 66.10 65.63 65.27 65.41 65.02 65.08 65.95 69.22 69.97 69.77 68.07 68.33 68.10 67.86 68.71 69.12 69.36 69.58 67.74 66.74 67.38 67.46 67.40 66.62 66.72 65.58
38.45 36.03 35.91 39.17 41.37 39.10 38.59 38.94 41.15 42.53 42.52 43.01 43.72 43.85 43.40 44.67 46.65 48.36 48.64 49.86 55.95 57.94 62.42 65.11 65.97 64.05 66.32 66.58 65.72 65.48 66.75 68.43 69.38 70.33 70.32 70.47 69.07 68.55 68.63 68.23 68.57 68.79 67.85 67.65 67.49 65.96 65.30 65.68 65.48
36.85 35.24 36.10 37.28 40.03 39.48 38.12 36.13 38.14 42.29 42.61 43.92 44.24 44.45 44.83 45.38 45.87 47.13 47.93 48.65 49.99 55.14 60.39 64.02 65.44 64.13 63.49 61.30 64.09 62.23 61.73 61.86 62.33 63.44 64.55 65.12 66.84 69.17 69.19 68.95 68.48 68.55 68.86 68.12 67.62 66.97 66.20 64.51 65.33
33.56 40.58 40.84 39.43 36.18 31.52 36.70 28.73 35.01 38.64 40.61 41.89 43.88 45.00 45.23 45.52 46.18 46.84 47.61 47.42 48.82 52.70 57.86 60.31 60.14 60.08 59.07 59.29 59.71 59.67 57.41 57.31 59.42 60.12 61.92 62.99 64.98 65.49 66.13 67.42 68.21 67.96 68.27 67.98 67.60 67.89 66.19 64.81 62.33
38.46 41.55 39.42 39.01 34.82 31.73 32.04 29.62 33.92 37.01 38.42 40.40 45.02 46.03 46.27 46.47 46.71 47.09 47.35 46.85 48.96 52.02 53.63 56.24 57.37 58.80 59.36 59.73 58.32 57.42 57.24 57.79 59.31 60.03 60.05 60.85 61.91 63.14 64.48 65.14 65.52 65.41 65.80 65.84 65.59 66.05 66.13 64.63 63.30
43.50 38.49 36.40 33.54 31.33 26.27 30.96 31.09 30.34 34.53 37.72 43.48 45.09 44.72 45.45 45.57 47.28 49.51 50.75 51.64 51.49 52.83 54.55 56.23 57.36 57.52 58.85 58.75 58.39 58.39 58.14 58.14 58.12 58.60 58.15 58.79 59.74 61.19 62.77 63.64 64.00 64.30 63.49 63.24 63.75 64.57 64.81 64.99 65.77
38.47 32.71 26.33 25.67 25.26 25.82 33.11 31.52 32.85 38.34 44.23 44.21 42.96 43.87 44.49 44.82 44.92 45.97 48.12 49.83 51.18 51.94 53.46 54.84 55.48 54.94 55.53 55.81 56.02 56.40 57.10 58.02 57.88 58.38 57.17 57.22 57.56 58.50 59.74 62.29 62.33 62.65 63.45 63.44 63.22 62.85 62.80 62.96 63.00
35.96 33.29 27.09 22.83 23.03 25.88 34.09 29.39 34.03 43.96 44.98 45.69 46.30 45.75 46.67 45.32 44.66 45.99 46.31 47.46 48.73 50.47 50.81 52.41 52.76 52.74 53.24 53.97 53.91 53.93 54.84 55.94 56.83 56.83 56.13 55.89 56.27 57.31 59.77 60.53 60.83 61.42 62.24 62.28 62.71 63.08 63.82 63.46 62.81
36.95 32.87 34.22 29.66 29.98 27.93 29.88 34.13 40.45 43.71 44.80 45.70 46.38 47.33 46.88 47.36 47.23 46.65 47.48 46.80 47.47 48.90 49.65 50.21 50.95 51.91 53.09 53.13 52.83 52.65 53.34 54.75 54.44 55.58 56.04 56.14 56.82 57.62 59.62 59.61 59.41 59.93 60.13 60.94 61.38 61.04 61.30 62.77 62.78
38.88 40.86 32.54 30.50 24.11 23.37 27.49 30.17 31.72 39.60 40.99 42.93 42.59 43.04 45.32 47.23 47.93 48.53 49.43 49.27 47.94 47.67 47.40 47.72 48.05 49.24 50.50 51.40 52.16 52.48 52.39 53.84 54.28 53.98 54.43 55.37 55.84 56.80 58.71 57.45 58.11 58.00 58.91 59.52 59.08 58.33 59.19 60.19 61.29
35.59 32.81 33.80 32.81 29.79 24.21 24.17 28.27 37.23 40.11 41.32 41.02 41.05 42.56 43.51 45.43 47.65 48.93 50.27 49.20 49.07 48.00 48.02 48.15 48.21 48.39 48.90 49.09 50.09 51.33 51.99 52.28 52.50 52.64 52.47 52.84 53.77 54.94 56.72 56.67 56.44 56.35 56.89 57.09 56.47 56.41 56.89 57.87 58.97
36.22 34.14 32.93 26.89 27.26 30.89 32.89 30.54 41.42 40.93 40.78 41.30 41.12 42.97 44.15 44.72 45.85 46.45 45.20 46.15 46.09 46.60 46.97 47.43 47.89 47.96 48.26 49.36 48.85 49.20 48.98 49.52 49.41 49.83 51.25 52.37 52.45 53.46 54.82 55.61 56.28 55.92 56.16 56.67 55.29 54.84 56.67 57.28 57.44
MSLP
1010.30 1009.98 1010.00 1010.39 1011.87 1012.60 1012.29 1010.89 1009.35 1008.24 1007.42 1006.07 1006.06 1005.55 1005.49 1005.92 1006.73 1008.06 1007.50 1007.70 1007.98 1008.72 1009.28 1009.84 1010.22 1010.38 1010.60 1010.66 1010.84 1011.09 1011.35 1011.66 1011.98 1012.34 1012.75 1013.20 1013.63 1013.99 1014.30 1014.54 1014.73 1014.93 1015.14 1015.35 1015.48 1015.69 1015.91 1016.07 1016.21
1010.39 1009.94 1010.21 1011.12 1012.13 1012.95 1011.97 1010.20 1009.37 1008.47 1007.33 1006.08 1005.42 1005.35 1005.62 1006.26 1006.66 1007.49 1007.83 1007.92 1008.19 1008.73 1009.21 1009.64 1010.06 1010.45 1010.79 1010.72 1010.98 1011.31 1011.62 1011.92 1012.29 1012.63 1012.95 1013.35 1013.76 1014.13 1014.53 1014.82 1015.00 1015.17 1015.36 1015.57 1015.77 1015.91 1016.04 1016.13 1016.26
1010.37 1010.36 1011.18 1011.91 1012.41 1012.42 1011.39 1009.77 1009.06 1007.90 1006.79 1006.37 1005.44 1005.03 1005.54 1006.05 1006.60 1007.15 1007.13 1007.67 1008.17 1008.96 1009.30 1009.63 1009.98 1010.41 1010.78 1010.84 1011.11 1011.48 1011.86 1012.20 1012.52 1012.79 1013.11 1013.42 1013.82 1014.21 1014.55 1014.86 1015.15 1015.33 1015.52 1015.73 1015.91 1016.08 1016.23 1016.33 1016.41
1010.74 1011.16 1012.25 1012.14 1012.34 1011.28 1010.25 1009.18 1008.73 1007.97 1006.31 1005.88 1005.58 1005.69 1005.73 1005.95 1006.32 1006.65 1007.32 1007.84 1008.45 1009.11 1009.26 1009.65 1010.05 1010.35 1010.69 1010.88 1011.23 1011.62 1012.06 1012.44 1012.77 1013.08 1013.41 1013.71 1014.05 1014.40 1014.73 1014.99 1015.21 1015.40 1015.58 1015.82 1016.05 1016.22 1016.34 1016.39 1016.42
1011.40 1012.00 1012.68 1012.62 1011.84 1010.64 1009.53 1008.70 1008.26 1008.09 1007.16 1006.32 1006.06 1005.90 1006.16 1006.31 1006.50 1006.98 1007.62 1008.12 1008.46 1009.21 1009.50 1009.83 1010.18 1010.36 1010.69 1011.00 1011.36 1011.72 1012.15 1012.59 1013.01 1013.42 1013.76 1014.03 1014.32 1014.55 1014.77 1015.00 1015.21 1015.40 1015.56 1015.73 1015.88 1016.01 1016.22 1016.38 1016.46
1012.13 1012.53 1013.04 1012.63 1011.47 1010.08 1009.17 1008.41 1007.96 1007.79 1006.97 1006.12 1006.16 1006.11 1006.59 1006.86 1007.13 1007.52 1007.89 1008.32 1008.80 1009.00 1009.43 1009.85 1010.22 1010.46 1010.69 1010.94 1011.31 1011.69 1012.07 1012.56 1013.02 1013.48 1013.87 1014.18 1014.46 1014.72 1014.95 1015.14 1015.37 1015.60 1015.78 1015.92 1016.15 1016.37 1016.48 1016.57 1016.70
1012.13 1012.56 1012.75 1012.17 1011.06 1009.93 1008.91 1008.08 1007.72 1007.31 1006.96 1005.99 1005.77 1006.41 1006.81 1007.08 1007.36 1007.93 1008.21 1008.68 1009.17 1009.41 1009.63 1009.81 1010.12 1010.33 1010.53 1010.97 1011.37 1011.74 1012.12 1012.56 1012.99 1013.41 1013.76 1014.06 1014.35 1014.68 1014.99 1015.20 1015.36 1015.50 1015.76 1016.00 1016.21 1016.36 1016.51 1016.65 1016.73
1011.73 1012.19 1012.43 1011.90 1010.83 1009.69 1008.59 1008.05 1007.48 1007.27 1006.44 1005.65 1005.62 1006.49 1006.62 1006.68 1007.36 1008.12 1008.63 1009.09 1009.57 1009.86 1010.02 1010.23 1010.29 1010.42 1010.65 1011.05 1011.42 1011.79 1012.19 1012.57 1012.95 1013.31 1013.69 1014.06 1014.31 1014.51 1014.78 1015.05 1015.29 1015.54 1015.75 1015.97 1016.12 1016.36 1016.51 1016.48 1016.48
1011.39 1012.00 1012.02 1011.30 1010.43 1009.36 1008.62 1008.17 1007.40 1006.81 1006.61 1005.96 1006.03 1006.22 1006.25 1006.56 1007.48 1008.32 1009.03 1009.57 1009.82 1009.92 1010.06 1010.26 1010.35 1010.38 1010.62 1010.98 1011.38 1011.81 1012.14 1012.53 1012.98 1013.37 1013.70 1014.07 1014.35 1014.60 1014.71 1014.91 1015.24 1015.45 1015.67 1015.73 1015.90 1016.00 1016.05 1016.21 1016.37
1011.31 1011.52 1010.94 1010.14 1009.53 1008.94 1008.67 1008.30 1007.83 1007.52 1006.75 1006.37 1006.16 1006.50 1006.67 1007.06 1007.92 1008.49 1008.84 1009.25 1009.62 1009.73 1009.87 1010.00 1010.25 1010.56 1010.69 1011.01 1011.51 1012.05 1012.47 1012.83 1013.06 1013.30 1013.58 1013.93 1014.28 1014.60 1014.84 1014.93 1015.04 1015.15 1015.37 1015.58 1015.72 1015.85 1016.03 1016.14 1016.23
1010.94 1010.73 1010.18 1009.41 1009.03 1008.70 1008.62 1008.20 1007.84 1007.62 1007.20 1006.73 1006.66 1006.69 1007.19 1007.75 1008.28 1008.69 1008.94 1009.00 1008.93 1009.50 1009.74 1009.90 1010.00 1010.17 1010.69 1011.13 1011.47 1011.92 1012.31 1012.67 1013.00 1013.27 1013.52 1013.82 1014.11 1014.29 1014.59 1014.86 1014.97 1014.96 1015.18 1015.54 1015.60 1015.79 1015.94 1016.08 1016.01
1010.80 1010.16 1009.67 1008.89 1008.30 1009.02 1008.97 1008.47 1008.33 1007.92 1007.44 1006.79 1007.12 1006.76 1007.07 1007.73 1008.35 1008.55 1008.76 1008.91 1009.15 1009.40 1009.62 1009.81 1010.16 1010.35 1010.51 1010.85 1011.21 1011.60 1011.94 1012.39 1012.77 1013.15 1013.49 1013.76 1013.96 1014.23 1014.50 1014.70 1014.87 1015.05 1014.94 1015.20 1015.49 1015.52 1015.74 1015.90 1015.93
1010.43 1010.02 1009.43 1008.88 1008.78 1008.57 1008.57 1008.77 1008.54 1008.05 1007.31 1006.79 1006.83 1007.13 1007.28 1007.60 1007.79 1007.95 1008.06 1008.22 1008.63 1008.90 1009.06 1009.33 1009.83 1010.15 1010.53 1010.91 1011.00 1011.38 1011.82 1012.08 1012.46 1012.68 1013.12 1013.69 1014.02 1014.37 1014.47 1014.62 1014.81 1014.75 1014.96 1015.07 1015.22 1015.37 1015.52 1015.61 1015.54
1009.64 1009.46 1009.23 1009.01 1008.69 1008.70 1008.56 1007.83 1008.10 1007.50 1006.78 1006.90 1006.98 1007.14 1007.12 1007.56 1007.43 1007.64 1007.92 1007.97 1008.45 1008.25 1008.39 1008.56 1008.93 1009.57 1010.15 1010.56 1011.06 1011.32 1011.32 1011.69 1012.36 1012.54 1012.76 1013.12 1013.59 1013.82 1014.07 1014.32 1014.35 1014.55 1014.67 1014.76 1014.95 1015.12 1015.45 1015.47 1015.38
1009.34 1009.44 1009.17 1008.81 1008.40 1008.37 1008.10 1008.24 1007.76 1006.83 1006.68 1006.99 1007.12 1007.12 1007.27 1007.29 1007.80 1007.40 1007.24 1007.53 1007.34 1007.43 1007.60 1008.00 1008.25 1009.02 1009.58 1009.92 1010.41 1010.91 1011.28 1011.58 1011.97 1012.08 1012.42 1012.88 1013.14 1013.39 1013.62 1013.76 1014.07 1014.07 1014.06 1014.32 1014.68 1014.88 1015.10 1015.29 1015.15
1009.60 1009.56 1009.04 1008.09 1007.88 1007.54 1007.88 1007.97 1007.15 1006.64 1006.98 1007.32 1007.36 1007.41 1007.25 1007.04 1006.91 1007.07 1007.29 1007.21 1007.20 1007.38 1007.46 1007.84 1008.37 1008.82 1009.26 1009.26 1009.73 1010.46 1010.68 1011.09 1011.58 1011.86 1012.11 1012.11 1012.75 1012.81 1013.32 1013.45 1013.68 1013.77 1014.05 1014.19 1014.52 1014.68 1015.00 1015.07 1015.00
1009.81 1009.77 1009.11 1008.15 1007.61 1007.72 1007.87 1008.12 1007.27 1007.02 1007.33 1007.58 1007.45 1007.11 1006.89 1006.65 1006.58 1006.36 1006.41 1006.57 1006.63 1006.65 1006.99 1007.37 1007.66 1008.04 1008.52 1009.09 1009.39 1009.99 1010.31 1010.75 1010.96 1011.37 1011.41 1011.77 1011.96 1011.85 1012.78 1012.94 1013.05 1013.30 1013.58 1013.86 1014.09 1014.39 1014.80 1014.72 1014.50
1010.10 1009.91 1009.20 1008.54 1008.13 1007.90 1008.11 1008.28 1007.79 1007.35 1007.39 1007.40 1007.32 1006.70 1006.67 1006.72 1006.23 1005.52 1005.71 1006.14 1006.38 1006.45 1006.61 1006.99 1007.37 1007.80 1008.41 1008.92 1009.31 1009.92 1010.14 1010.51 1010.72 1010.99 1011.02 1011.07 1011.35 1011.60 1011.96 1012.23 1012.38 1012.70 1013.13 1013.39 1013.67 1013.80 1014.27 1014.40 1014.34
1009.69 1009.76 1009.53 1008.77 1008.24 1008.20 1008.26 1008.52 1007.88 1007.27 1007.46 1007.44 1007.25 1006.96 1006.76 1006.37 1005.40 1005.44 1005.65 1005.57 1005.81 1006.26 1006.57 1006.69 1007.12 1007.61 1008.24 1008.83 1009.22 1009.63 1009.73 1009.93 1010.36 1010.59 1010.60 1010.82 1011.13 1011.24 1011.62 1011.98 1012.26 1012.44 1012.53 1012.49 1012.61 1012.92 1013.11 1013.77 1014.25
1009.67 1009.73 1009.59 1008.84 1008.45 1008.65 1008.42 1008.52 1007.94 1007.37 1007.36 1007.36 1007.15 1006.86 1006.80 1006.65 1005.84 1005.51 1005.64 1005.99 1006.07 1005.72 1005.85 1006.42 1006.45 1007.08 1007.29 1007.74 1008.45 1009.03 1009.47 1009.86 1010.01 1010.24 1010.32 1010.47 1010.66 1010.90 1011.35 1011.67 1011.96 1012.25 1012.40 1012.53 1012.68 1012.77 1012.81 1013.05 1012.55
1009.56 1009.73 1009.67 1009.51 1009.14 1008.94 1008.97 1008.84 1008.33 1007.58 1007.36 1007.05 1007.22 1007.30 1007.28 1007.29 1006.55 1006.02 1005.86 1005.89 1006.15 1006.31 1006.08 1005.81 1005.92 1006.36 1007.16 1007.72 1008.37 1009.10 1009.61 1010.02 1010.40 1010.64 1010.93 1010.93 1010.59 1010.62 1010.92 1011.25 1011.67 1011.96 1012.15 1012.22 1012.30 1012.16 1012.02 1012.22 1012.10
1009.33 1009.00 1009.28 1009.63 1010.13 1010.29 1009.88 1009.85 1009.06 1008.32 1008.12 1007.81 1007.58 1007.83 1007.91 1007.70 1007.11 1006.78 1006.26 1005.88 1005.85 1005.61 1005.87 1006.22 1006.55 1006.78 1007.30 1008.03 1008.73 1009.23 1009.82 1010.50 1010.47 1010.96 1010.91 1010.78 1010.72 1010.66 1010.84 1011.15 1011.53 1011.78 1011.94 1012.07 1012.17 1012.12 1011.98 1011.80 1011.61
1008.56 1008.75 1009.40 1009.85 1010.63 1010.86 1010.97 1011.18 1009.45 1009.08 1008.83 1008.60 1008.66 1008.77 1008.59 1008.40 1008.01 1007.71 1007.54 1006.61 1006.07 1005.80 1006.05 1006.54 1006.95 1007.23 1007.65 1008.04 1008.69 1009.34 1009.73 1010.16 1010.45 1010.67 1010.95 1010.78 1010.54 1010.40 1010.49 1010.81 1011.14 1011.44 1011.64 1011.78 1011.91 1011.91 1011.84 1011.71 1011.77
1008.27 1009.26 1010.18 1011.21 1011.74 1012.01 1011.64 1011.65 1010.71 1009.94 1009.71 1009.39 1009.76 1009.87 1009.62 1009.25 1008.62 1008.31 1008.02 1007.27 1006.70 1006.53 1006.64 1006.82 1007.35 1008.07 1008.17 1008.25 1008.64 1009.31 1009.59 1009.98 1010.44 1010.84 1011.00 1010.93 1010.64 1010.43 1010.45 1010.73 1010.95 1011.17 1011.44 1011.41 1011.40 1011.38 1011.46 1011.28 1011.23
1008.84 1010.11 1011.91 1012.84 1013.27 1013.11 1012.34 1012.17 1010.77 1010.33 1010.22 1010.17 1010.59 1010.54 1010.23 1010.05 1009.68 1009.19 1008.73 1008.28 1007.73 1007.67 1007.63 1007.50 1007.62 1008.45 1008.66 1008.63 1008.91 1009.25 1009.58 1009.88 1010.27 1010.55 1010.74 1010.63 1010.61 1010.59 1010.45 1010.48 1010.70 1010.89 1011.06 1011.17 1011.16 1011.08 1011.02 1010.92 1010.93
1009.61 1010.64 1012.41 1013.50 1014.33 1014.01 1013.19 1012.21 1010.91 1010.90 1010.79 1010.57 1010.66 1010.66 1010.44 1010.29 1009.93 1009.57 1009.46 1009.38 1009.14 1008.89 1008.70 1008.38 1008.61 1008.80 1009.15 1009.47 1009.65 1009.84 1010.07 1010.19 1010.18 1010.29 1010.33 1010.22 1010.22 1010.02 1010.12 1010.29 1010.45 1010.48 1010.54 1010.59 1010.71 1010.80 1010.66 1010.50 1010.39
1010.22 1011.32 1012.41 1013.84 1015.11 1014.97 1013.67 1012.29 1011.51 1011.35 1011.09 1010.94 1010.92 1010.84 1010.83 1010.56 1010.34 1009.91 1009.57 1009.47 1009.39 1009.54 1009.68 1009.56 1009.52 1009.59 1009.67 1009.78 1009.85 1009.93 1010.06 1010.08 1010.02 1009.93 1009.84 1009.65 1009.51 1009.48 1009.61 1009.71 1009.94 1009.99 1009.91 1009.95 1009.98 1010.09 1010.07 1010.10 1009.86
1010.39 1011.76 1013.16 1014.58 1015.87 1015.83 1014.46 1013.34 1011.97 1011.73 1011.50 1011.34 1011.26 1011.30 1011.09 1010.54 1010.23 1009.98 1009.51 1009.30 1009.46 1009.45 1009.59 1009.59 1009.71 1009.86 1010.04 1010.15 1010.25 1010.22 1010.26 1010.20 1010.12 1009.92 1009.38 1009.12 1009.08 1009.21 1009.21 1009.23 1009.35 1009.29 1009.27 1009.27 1009.39 1009.50 1009.40 1009.43 1009.04
1011.92 1012.76 1014.16 1015.15 1015.98 1015.84 1015.22 1013.18 1011.70 1011.43 1011.40 1011.48 1011.52 1011.24 1010.88 1010.69 1010.28 1010.04 1009.83 1009.46 1009.38 1009.60 1009.67 1010.01 1010.09 1009.97 1010.16 1010.15 1009.93 1009.63 1009.51 1009.76 1009.75 1009.59 1009.57 1009.30 1009.19 1009.38 1009.17 1008.90 1008.81 1008.78 1008.70 1008.66 1008.80 1008.83 1008.69 1008.63 1008.45
1012.74 1013.58 1014.52 1015.60 1016.50 1016.23 1015.62 1013.50 1011.76 1011.57 1011.54 1011.57 1011.49 1011.18 1010.84 1010.72 1010.37 1010.21 1010.24 1010.23 1010.18 1010.34 1010.50 1010.59 1010.64 1010.39 1010.05 1010.28 1010.00 1009.70 1009.71 1009.81 1009.77 1009.38 1009.02 1009.04 1009.09 1008.95 1008.96 1008.81 1008.70 1008.40 1008.11 1008.05 1008.21 1008.12 1007.86 1007.74 1007.60
Wind_Speed
7 7 1 4 5 5 2 6 3 4 7 3 5 4 3 4 3 5 1 5 12 14 11 13 13 15 16 17 17 16 14 14 15 16 16 15 15 14 13 12 12 12 12 11 11 11 10 10 10
5 4 4 3 6 3 5 5 2 3 6 11 4 1 4 1 3 5 6 7 13 13 10 11 15 15 16 18 18 17 16 15 14 15 15 15 14 14 13 11 11 11 11 10 10 10 10 10 9
5 3 4 5 4 6 5 4 3 6 10 6 3 4 1 3 2 9 4 14 15 11 9 11 16 16 16 18 18 17 16 17 17 17 16 16 15 13 12 11 10 10 10 10 9 9 9 9 8
3 5 5 5 5 6 6 3 1 10 8 2 4 4 3 3 8 5 12 14 14 10 9 13 16 16 16 18 18 17 16 16 16 15 15 14 14 12 11 10 10 9 10 9 9 8 8 8 7
5 3 4 2 5 5 4 4 4 5 5 6 5 5 2 2 6 12 12 13 14 9 6 10 15 16 16 17 17 16 15 14 13 13 13 12 11 11 10 10 10 9 9 9 10 9 8 7 7
3 4 4 3 5 4 3 4 2 2 6 9 2 4 3 4 5 8 10 11 10 12 9 9 14 14 15 16 16 16 15 14 13 12 11 10 10 9 8 8 7 7 6 6 6 5 5 6 6
5 5 4 4 3 5 3 2 2 4 5 6 4 3 2 3 6 6 8 7 8 8 9 8 9 13 16 14 14 14 14 13 13 12 11 11 10 9 7 7 6 6 6 5 5 5 5 5 6
4 5 5 4 4 5 1 5 3 2 6 5 4 4 5 4 11 8 8 7 5 4 6 6 6 7 8 8 14 14 14 13 13 12 12 10 10 9 8 8 7 6 5 4 5 5 6 6 6
3 4 3 5 5 4 1 6 4 4 4 3 3 2 3 15 14 9 8 5 4 6 5 5 6 6 7 7 9 12 15 14 13 11 11 8 3 4 6 6 7 6 6 7 7 7 8 7 7
4 4 9 6 5 2 5 2 3 6 8 3 2 6 8 12 10 9 9 10 8 10 8 7 6 6 6 6 5 5 5 4 5 5 6 4 4 4 4 6 8 9 8 8 7 7 8 7 2
4 5 6 4 6 3 3 9 4 3 4 1 2 4 5 5 5 6 6 6 10 7 7 9 8 6 7 5 4 4 3 3 3 6 6 5 4 4 3 2 3 3 5 2 3 3 2 4 3
3 6 4 6 2 4 5 3 6 4 7 7 3 2 5 9 9 9 8 7 7 7 7 6 7 9 9 4 6 5 5 7 6 6 5 4 3 3 3 3 3 3 3 4 4 2 3 4 4
4 3 4 6 5 7 3 7 7 7 11 10 7 4 7 7 8 7 9 7 7 9 10 10 10 9 8 5 7 5 5 7 6 6 8 4 4 3 2 3 3 3 2 3 4 4 3 3 5
7 7 8 3 7 5 4 9 9 7 8 8 6 8 7 9 9 3 5 9 9 10 12 13 15 12 9 8 7 6 5 7 4 5 8 10 5 4 5 4 5 4 4 3 4 4 3 5 4
2 3 3 6 6 8 7 7 6 11 5 8 9 9 8 10 7 11 10 9 10 9 8 13 14 12 13 12 9 7 6 5 6 7 8 8 7 6 6 5 5 5 5 5 4 3 3 5 4
4 3 1 4 6 4 9 7 7 8 1 7 9 9 9 9 10 9 10 10 9 5 10 8 9 11 12 12 9 6 6 6 6 5 5 7 7 6 5 5 5 4 3 4 3 3 4 5 5
6 2 4 4 5 3 3 4 7 4 3 8 9 10 10 9 9 10 9 11 10 11 8 9 12 14 14 9 8 6 7 6 5 5 5 7 7 8 8 6 5 5 4 5 4 3 4 5 5
6 4 3 4 1 2 2 6 8 3 3 7 10 9 8 9 13 10 9 9 8 9 7 6 7 8 9 5 4 3 4 4 4 5 6 8 6 8 8 6 6 5 4 5 4 6 3 6 6
5 3 3 3 4 2 5 5 11 7 4 8 7 6 9 10 9 7 6 8 8 7 8 9 9 9 9 5 5 3 7 5 4 5 6 7 6 7 5 5 5 5 6 8 9 5 5 3 3
2 2 4 6 5 5 6 6 7 7 6 5 7 8 8 9 9 9 3 5 7 6 10 9 12 10 11 9 3 3 3 2 3 3 3 4 5 5 5 6 5 5 5 6 6 5 2 3 6
3 4 4 7 3 2 3 5 3 3 4 5 3 5 5 8 9 10 7 7 5 8 9 11 12 9 4 5 4 4 4 4 3 3 2 2 4 4 4 4 4 4 4 5 6 6 9 7 4
2 9 9 6 4 3 2 6 5 3 7 6 9 8 8 10 9 10 12 7 8 11 5 3 4 7 7 6 4 4 3 3 2 3 2 2 3 5 4 3 3 4 3 5 5 5 7 4 8
9 4 4 4 4 4 2 2 8 2 4 4 8 11 12 9 7 9 10 9 6 4 2 4 7 7 7 6 7 6 6 3 3 2 3 2 2 4 4 4 3 1 1 4 5 7 7 4 5
1 4 7 5 4 1 5 5 5 2 3 5 6 7 10 12 11 9 7 5 6 7 7 7 9 6 5 7 8 8 8 6 4 3 3 2 1 2 2 3 3 2 2 3 4 5 7 8 7
5 6 3 4 3 5 1 1 8 3 4 3 5 8 8 8 9 9 11 10 9 9 7 7 9 6 5 7 6 6 6 6 6 5 4 5 3 2 4 4 3 3 3 4 4 4 6 7 6
2 7 7 6 5 4 2 6 4 2 3 4 5 4 7 9 7 9 9 8 8 8 8 8 8 6 5 3 0 1 3 3 4 5 5 4 4 4 5 5 5 5 4 3 3 4 6 7 7
3 2 3 7 4 2 4 5 3 3 4 6 7 8 7 5 7 6 7 7 7 8 8 8 8 4 2 4 4 5 6 6 6 7 5 4 5 4 6 6 6 6 6 5 3 3 4 5 7
4 4 4 4 4 4 4 4 5 4 2 3 8 7 7 7 5 2 3 4 3 3 3 5 5 2 2 4 4 4 6 6 6 6 8 7 6 6 7 8 8 7 6 6 5 4 5 5 5
4 2 6 4 4 5 2 7 5 7 4 4 6 7 7 7 7 3 4 3 3 4 6 6 6 6 6 6 5 5 4 5 5 4 5 5 5 6 7 8 8 8 8 7 6 7 6 6 7
1 3 4 6 4 2 2 7 2 6 2 4 7 9 9 6 8 7 8 7 7 6 6 7 8 7 5 5 5 6 5 3 4 4 5 4 6 5 7 8 8 8 8 7 8 8 7 7 7
Wind_Direction
315 310 109 45 65 66 260 260 266 323 330 298 276 261 192 128 176 215 343 153 131 139 147 155 150 146 143 135 130 128 124 121 122 124 126 126 127 131 135 138 142 145 146 146 147 146 144 143 137
311 333 39 81 95 82 268 270 280 274 267 308 273 111 30 90 92 114 129 154 141 141 147 150 152 148 147 137 135 134 134 132 129 129 129 130 134 139 142 144 147 150 152 152 151 151 154 156 154
306 49 82 99 120 172 218 222 275 274 279 224 285 62 38 323 74 164 153 146 135 144 150 158 155 151 149 141 139 139 140 142 143 142 141 141 143 145 148 150 153 159 160 158 160 163 166 168 168
7 11 33 98 211 243 207 253 297 336 329 320 150 88 63 318 154 167 142 140 136 141 147 162 158 154 153 147 145 145 145 146 146 145 147 147 148 149 151 156 160 167 166 167 169 173 181 188 187
28 50 75 120 249 260 242 270 326 326 272 288 319 158 115 28 75 125 138 146 143 141 139 154 161 156 155 152 151 149 148 148 148 151 154 153 155 161 167 169 173 175 175 179 182 184 190 202 206
32 100 79 216 246 249 294 241 287 283 286 299 341 119 159 102 98 142 146 148 152 149 148 157 164 159 158 159 158 155 154 154 155 157 160 162 167 175 178 177 177 185 191 192 195 202 215 226 237
149 104 195 194 246 303 236 190 130 278 272 278 141 134 306 153 115 138 129 125 141 151 155 162 164 168 165 166 163 160 159 160 161 163 167 172 177 182 185 186 189 190 199 202 207 212 222 238 258
122 96 140 232 209 270 325 329 285 180 276 301 126 210 216 168 124 113 99 101 115 146 164 165 166 167 163 167 170 167 167 168 170 173 175 179 185 186 191 198 204 208 206 210 215 230 241 241 247
138 80 200 219 175 224 322 22 303 277 284 4 333 251 285 125 122 115 113 111 136 179 180 172 176 174 162 162 178 178 178 176 177 180 182 180 179 201 205 204 214 220 220 218 221 221 227 238 251
191 143 217 197 214 165 315 354 324 1 335 33 352 61 85 124 139 148 164 176 188 196 195 186 175 175 164 173 164 154 171 172 176 176 173 173 175 190 204 215 223 228 233 234 234 232 240 250 255
188 222 188 241 231 119 328 325 294 326 323 81 63 89 107 110 147 174 198 203 207 202 194 194 184 172 165 175 157 162 168 172 173 178 176 177 181 192 198 196 225 210 240 240 251 251 243 249 243
204 211 230 253 187 158 178 304 321 266 239 276 226 236 155 169 179 188 204 203 185 183 192 184 191 190 187 161 180 173 176 200 205 201 192 187 192 192 201 207 219 223 200 224 229 227 241 251 260
187 230 222 241 268 285 285 210 224 256 267 288 278 195 183 192 210 218 214 217 182 195 188 189 179 188 186 181 184 164 177 202 196 194 207 194 189 187 181 223 224 220 219 225 229 242 247 255 257
205 200 232 260 264 220 231 282 138 267 256 283 260 249 221 191 217 226 226 230 201 207 204 187 191 189 177 180 179 189 175 192 183 204 215 211 186 183 196 211 222 224 209 217 234 239 240 256 260
184 219 278 214 225 228 164 285 208 236 248 251 259 256 235 244 169 215 217 223 214 213 209 201 192 181 182 185 179 179 189 179 196 203 202 206 191 193 208 208 226 228 208 217 225 241 231 259 261
155 50 69 263 164 239 155 259 273 258 256 274 273 267 268 259 233 214 217 222 225 205 198 177 187 183 191 189 183 182 177 182 193 185 180 169 202 188 204 217 225 211 209 213 215 221 257 260 253
3 192 193 287 207 134 135 244 267 307 266 262 260 253 249 261 277 256 217 211 217 211 190 183 180 182 191 183 176 179 176 194 183 177 183 182 195 187 209 218 227 195 204 211 219 215 222 256 260
188 196 240 212 148 58 133 247 271 287 316 282 293 281 253 240 253 248 240 218 219 224 197 178 175 175 184 149 139 162 179 186 176 200 197 195 208 210 207 214 219 183 199 207 202 221 214 250 275
153 162 221 237 261 9 264 263 275 288 302 290 288 275 260 250 268 297 288 211 206 219 188 188 171 169 156 166 162 174 203 187 194 195 204 199 204 218 217 221 235 197 204 214 209 192 187 235 136
135 181 254 289 245 149 273 261 276 281 255 262 310 337 306 302 306 304 310 234 219 214 201 184 193 172 185 186 159 132 134 157 141 157 160 191 194 209 206 207 222 217 219 233 226 182 169 219 166
181 174 225 226 7 270 344 309 328 314 308 319 8 321 309 284 310 302 305 249 227 246 227 203 194 178 167 123 94 75 70 55 69 83 121 189 157 167 202 217 218 225 217 241 219 201 186 212 217
237 210 217 242 111 217 69 275 306 294 311 333 334 351 338 331 321 299 297 287 231 237 217 224 134 123 112 112 104 119 131 140 153 170 170 139 110 110 107 134 177 215 216 237 229 233 250 263 256
222 149 220 182 155 114 356 50 265 308 278 320 347 352 344 335 337 328 308 293 291 273 211 116 111 107 117 119 121 119 111 120 126 117 130 135 83 86 81 74 69 75 203 234 238 261 262 239 241
55 105 48 51 85 44 224 166 281 247 331 317 12 355 358 354 351 355 340 23 49 56 65 86 88 69 97 117 120 128 135 147 142 163 170 175 132 88 89 123 134 179 231 259 254 240 239 250 243
74 60 358 351 4 221 29 47 235 305 359 21 52 20 12 14 8 3 6 14 36 57 75 90 104 102 100 96 118 140 153 166 181 183 188 177 172 182 193 174 173 188 210 236 243 257 255 244 234
104 149 159 200 196 243 313 238 236 73 90 93 89 65 39 29 20 25 18 11 7 26 41 66 64 73 59 66 155 232 227 220 211 198 198 201 197 185 182 183 196 206 217 229 219 225 244 253 251
170 83 156 101 19 54 249 300 13 99 50 39 37 31 5 13 12 34 54 35 23 16 14 20 21 4 279 254 246 232 221 218 217 218 212 205 208 199 193 192 198 207 207 220 234 251 259 221 262
97 146 71 11 147 232 274 268 222 173 138 7 21 6 333 337 339 307 68 66 47 66 20 31 31 21 323 332 311 278 259 245 241 224 218 211 213 217 202 201 206 204 207 207 211 241 262 272 265
18 48 54 111 140 180 234 251 215 174 167 3 331 318 306 303 307 254 279 277 21 23 52 46 32 33 12 355 339 335 324 323 309 290 287 298 326 277 257 233 213 212 211 210 209 221 238 241 264
130 140 126 124 221 197 212 274 195 155 301 301 304 308 317 285 293 336 9 35 41 44 25 15 2 1 4 324 334 350 331 277 274 289 298 284 263 254 247 255 255 243 221 219 217 228 227 229 242